SCP
0 0 0 0 0 0 0 0 0 0 0 0 0 0 0 0 0 0 0 0 0 1 1 1 1 1 1 1 1 1 1 1 1 1 1 1 1 1 1 0 1 1 0
0 0 0 0 0 0 0 0 0 0 0 0 0 0 0 0 0 0 0 0 0 0 0 0 0 0 0 0 0 1 1 1 1 1 1 1 1 1 1 1 0 0 1
0 0 0 0 0 0 0 0 0 0 0 0 0 0 0 0 0 0 0 0 0 0 0 0 0 0 0 0 0 0 0 0 0 1 1 1 1 1 1 0 0 0 1
0 0 0 0 0 0 1 1 0 0 0 0 -0 0 0 0 0 0 0 0 0 0 0 0 0 0 0 0 0 0 0 0 0 1 1 1 1 1 1 1 1 1 1
0 0 0 0 2 1 1 1 1 1 1 1 0 0 0 0 0 0 0 0 0 0 0 0 0 0 0 0 0 0 0 0 0 0 0 0 0 1 1 1 1 1 0
0 0 0 1 1 2 2 2 1 0 0 0 0 0 0 0 0 0 0 0 0 0 0 0 0 0 0 0 0 0 0 0 0 0 0 0 0 0 0 0 0 0 0
0 0 1 1 2 2 1 1 1 0 0 -0 0 0 0 0 0 0 0 0 0 0 0 0 0 0 0 0 0 0 0 0 0 0 0 0 0 0 0 0 0 0 0
2 2 1 1 2 1 0 0 0 0 0 0 0 0 0 0 0 0 0 0 0 0 0 0 0 0 0 0 0 0 0 0 0 0 0 0 0 0 0 0 0 0 0
0 0 0 0 0 0 0 0 0 -0 0 0 0 0 0 0 0 0 0 0 0 0 0 0 0 0 0 0 0 0 0 0 0 0 0 0 0 0 0 0 0 0 0
0 0 0 0 0 0 0 0 -0 -0 0 0 0 0 0 0 0 0 0 0 0 0 0 0 0 0 0 0 0 0 0 0 0 0 0 0 0 0 0 0 0 0 0
0 0 0 0 -0 -0 0 -0 -0 0 0 0 0 0 0 0 0 0 0 0 0 0 0 0 0 0 0 0 0 0 0 0 0 0 0 0 0 0 0 0 0 0 0
0 0 0 -0 -0 -0 -0 -0 -0 0 0 0 0 0 0 0 0 0 0 0 0 0 0 0 0 0 0 0 0 0 0 0 0 0 0 0 0 0 0 0 0 0 0
0 0 0 -0 -0 -0 -0 0 0 0 0 0 0 0 0 0 0 0 0 0 0 0 0 0 0 0 0 0 0 0 0 -0 -0 -0 0 -0 -0 0 0 0 0 0 0
0 0 0 0 0 0 0 0 0 0 0 0 0 0 0 0 0 0 0 0 0 0 0 0 0 0 0 0 0 0 0 0 0 -0 -0 -0 -0 -0 -0 -0 0 0 0
0 0 0 0 0 0 0 0 0 0 0 0 0 0 0 0 0 0 0 0 0 0 0 0 0 0 0 0 0 0 0 0 0 0 -0 -0 -0 -0 -0 -0 -0 -0 0
0 0 0 0 0 0 0 0 0 0 0 0 0 0 0 0 0 0 0 0 0 0 0 0 0 0 0 0 0 0 0 0 0 0 -0 0 0 0 0 0 0 0 0
0 0 0 0 0 0 0 0 0 0 0 0 0 0 0 0 0 0 0 0 0 0 0 0 0 0 0 0 0 0 0 0 0 0 -0 0 0 0 0 0 0 0 0
0 0 0 0 0 0 0 0 0 0 0 0 0 0 0 0 0 0 0 0 0 0 0 0 0 0 0 0 0 0 0 0 0 0 0 0 0 0 0 0 0 0 0
0 0 0 0 0 0 0 0 0 0 0 0 0 0 0 0 0 0 0 0 0 0 0 0 0 0 0 0 0 0 0 0 0 0 0 0 0 0 0 0 0 0 0
0 0 0 0 0 0 0 0 0 0 0 0 0 0 0 0 0 0 0 0 0 0 0 0 0 0 0 0 0 0 0 0 0 0 0 0 0 0 0 0 0 0 0
0 0 0 0 0 0 0 0 0 0 0 0 0 0 0 0 0 0 0 0 0 0 0 0 0 0 0 0 0 0 0 0 0 0 0 0 0 0 0 0 0 0 0
0 0 0 0 0 0 0 0 0 0 0 0 0 0 0 0 0 0 0 0 0 -0 -0 0 0 0 0 0 0 0 0 0 0 0 0 0 0 0 0 0 0 0 0
0 0 0 0 0 0 0 0 0 0 0 0 0 0 0 0 0 0 0 0 0 0 0 -0 0 0 0 0 0 0 0 0 0 0 0 0 0 0 0 0 0 0 0
0 0 0 0 0 0 0 0 0 0 0 0 0 0 0 0 0 0 0 0 0 0 0 0 0 0 0 0 0 0 0 0 0 0 0 0 0 0 0 0 0 0 0
0 0 0 0 0 0 0 0 0 0 0 0 0 0 0 0 0 0 0 0 0 0 0 0 0 0 0 0 0 0 0 0 0 0 0 0 0 0 0 0 0 0 0
0 0 0 0 0 0 0 0 0 0 0 0 0 0 0 0 0 0 0 0 0 0 0 0 0 0 0 0 0 0 0 0 0 0 0 0 0 0 0 0 0 0 0
Wind_Speed_500mb
34 34 31 26 22 20 18 20 17 12 9 9 12 13 17 24 31 34 37 41 41 40 41 42 42 44 46 48 50 50 49 50 49 48 47 44 40 38 40 41 44 47 52
31 31 31 28 27 20 17 17 12 10 12 14 13 20 27 31 35 34 35 36 37 38 38 38 38 38 37 39 40 39 39 41 43 44 44 45 45 43 44 46 47 47 46
29 30 30 30 25 20 19 12 14 14 16 18 19 28 31 33 32 32 33 33 35 38 38 38 38 38 38 39 39 41 44 46 47 47 47 47 49 50 50 52 54 53 48
29 28 32 32 25 23 18 16 13 8 15 27 33 34 35 28 32 31 32 34 35 37 37 38 40 40 41 43 45 46 48 50 52 53 53 53 55 57 56 52 49 49 49
31 33 27 30 29 23 17 10 6 8 11 11 49 37 33 31 29 28 30 32 39 39 41 44 46 50 50 48 47 47 46 47 47 47 49 53 55 58 55 51 48 47 49
32 33 31 29 26 18 14 12 11 11 3 32 46 37 30 28 25 27 29 43 39 41 51 54 57 57 51 48 47 48 48 49 50 50 50 49 49 50 48 46 46 45 44
32 37 34 34 32 26 19 13 9 9 27 45 34 26 27 24 23 25 35 43 48 53 57 58 54 50 43 44 41 43 45 48 49 48 51 53 52 50 47 42 41 41 42
35 35 32 33 34 27 26 21 16 18 49 36 24 28 10 22 21 23 42 45 48 54 50 46 42 39 37 39 43 40 39 41 43 44 46 48 49 50 53 54 51 47 43
25 23 31 26 36 22 14 14 18 41 28 25 25 14 12 9 37 32 38 40 49 49 40 32 34 30 36 40 41 40 39 38 39 42 43 46 48 49 50 49 48 47 47
22 16 9 30 6 33 20 36 37 22 21 23 19 18 18 22 14 21 38 40 44 33 31 29 29 31 35 37 36 38 43 45 47 47 49 47 47 46 47 46 45 45 40
14 25 24 39 38 25 34 31 25 18 19 16 15 17 19 19 17 14 28 42 30 24 25 24 21 25 30 32 34 43 46 45 45 48 51 49 47 47 49 50 48 45 41
36 35 21 13 20 29 21 15 14 16 17 15 15 18 17 11 11 12 22 32 31 23 18 17 20 24 29 31 36 47 45 38 36 43 47 46 46 46 47 47 46 42 41
38 40 15 23 31 23 14 13 13 13 14 17 20 19 18 16 18 16 13 22 26 29 17 14 30 28 32 31 38 44 43 34 41 45 48 48 48 44 45 47 45 40 43
49 36 25 22 13 11 10 9 10 13 17 18 20 19 18 17 16 16 16 24 31 15 19 23 36 31 34 34 39 43 42 42 38 40 41 45 44 41 46 49 48 44 39
38 34 18 17 14 11 7 8 14 17 18 17 16 14 12 10 13 17 18 20 16 18 23 35 35 41 36 34 39 43 42 43 37 35 37 37 37 39 43 48 49 45 40
25 21 25 21 15 11 10 11 15 12 12 10 7 7 8 10 14 14 11 11 13 16 17 31 36 44 42 40 39 46 45 44 41 33 32 38 44 45 47 49 48 45 43
24 26 24 19 13 6 8 9 7 5 3 4 9 10 10 15 14 13 14 15 16 19 26 33 34 38 46 49 50 47 45 42 46 42 30 35 40 43 46 48 46 44 46
30 22 17 12 7 6 3 1 2 6 7 13 11 8 10 12 15 21 21 22 22 30 30 38 40 40 46 48 52 47 48 48 52 44 38 38 41 43 47 47 43 48 53
24 17 10 3 4 2 2 2 6 9 12 12 6 4 9 13 16 20 25 27 27 30 31 33 41 40 45 42 54 46 51 53 52 50 38 49 42 46 49 49 43 52 53
18 11 6 5 6 8 8 8 8 8 11 8 4 6 11 21 22 25 27 32 36 40 35 35 39 42 45 49 45 50 59 55 62 44 38 57 50 38 49 57 42 58 63
14 13 12 12 12 11 9 7 6 6 9 6 5 10 16 24 29 30 31 35 41 43 39 41 40 45 48 60 53 59 58 65 64 35 46 48 47 41 41 44 39 57 66
16 15 15 15 12 11 11 7 5 5 8 6 6 15 21 26 23 26 31 38 43 48 49 47 41 49 55 56 54 60 58 63 64 41 54 50 47 40 42 45 41 58 63
16 15 15 14 12 13 13 13 8 7 9 9 12 17 21 27 27 27 32 38 44 45 49 55 54 50 57 60 61 55 53 52 56 61 50 60 42 46 52 47 46 57 68
18 17 17 16 14 13 14 13 16 17 14 16 18 23 27 28 31 35 43 47 49 51 52 52 54 54 54 54 51 47 45 47 46 39 48 56 53 52 57 44 40 60 67
18 18 17 16 15 14 15 17 17 16 12 15 19 21 27 31 35 42 49 53 55 55 56 55 48 43 42 38 40 39 38 48 57 51 29 52 56 64 60 44 34 60 64
20 22 18 16 16 15 16 17 17 18 17 15 17 22 27 33 41 46 50 54 56 56 55 53 44 38 35 33 36 36 33 43 46 43 43 58 60 60 55 43 71 63 71
Wind_Direction_500mb
212 211 207 201 202 195 193 185 207 223 226 241 275 294 311 312 311 308 306 305 306 307 306 304 302 297 295 293 294 294 294 293 292 290 290 292 292 294 295 297 296 290 285
214 214 211 205 194 194 194 207 220 228 248 262 285 313 316 309 304 304 305 308 312 314 314 311 309 304 302 301 302 302 305 305 302 295 289 287 291 293 296 299 298 294 290
215 213 210 201 196 201 216 230 239 250 273 292 318 317 310 306 304 309 311 312 312 312 311 309 305 304 303 301 301 300 300 301 300 298 295 294 295 296 299 300 299 296 291
214 209 205 195 198 213 232 239 248 266 318 320 325 306 307 307 310 310 307 308 314 317 315 313 311 309 308 306 306 305 302 300 296 295 294 294 294 295 297 297 292 289 289
210 201 193 196 209 223 228 234 244 299 357 353 300 306 305 302 300 298 306 315 320 318 318 317 314 314 313 310 307 304 304 302 301 298 297 296 295 296 297 296 292 288 289
212 206 204 207 212 210 204 222 218 257 153 274 288 296 294 294 287 301 305 321 315 318 318 317 320 320 317 314 309 307 306 303 303 304 303 302 304 303 301 299 294 289 290
212 211 215 223 217 205 207 185 191 237 267 284 290 287 300 283 286 296 308 313 318 320 321 322 323 322 320 317 316 314 313 310 309 308 305 303 299 299 300 299 298 295 291
214 217 227 233 185 183 162 155 154 252 268 276 284 306 282 296 285 293 308 310 317 322 324 327 328 330 333 334 333 332 326 319 318 318 314 311 306 301 294 291 292 291 293
229 239 242 236 181 141 40 195 213 267 274 277 301 307 309 293 308 308 310 319 324 328 335 339 341 343 338 339 342 344 344 342 336 331 328 320 315 310 305 303 299 295 290
216 193 190 140 273 235 218 195 267 277 270 285 297 308 308 301 306 314 319 335 333 346 347 345 341 341 334 340 346 344 339 336 332 330 330 325 318 315 312 310 307 300 296
102 70 105 111 125 187 206 252 269 264 275 290 303 317 317 318 322 325 322 335 347 346 349 351 344 342 341 352 350 348 341 334 333 334 333 329 324 319 314 312 311 308 303
112 112 117 152 207 234 255 260 262 275 286 303 323 329 331 341 343 347 332 328 325 339 341 5 354 356 348 350 351 351 346 343 343 342 345 343 337 337 336 324 309 305 303
137 123 153 188 233 245 239 238 269 287 306 326 330 331 343 349 350 355 334 324 318 334 335 324 345 345 346 349 351 354 1 347 338 337 339 341 340 342 345 350 344 322 304
138 135 186 240 198 202 218 251 275 299 314 324 329 338 344 352 352 358 339 344 350 335 340 344 344 339 342 343 347 349 354 357 346 346 344 349 352 346 344 342 339 335 333
139 154 187 185 175 195 227 273 287 302 312 324 329 346 360 359 1 359 11 29 13 342 353 351 353 352 353 343 344 345 350 349 350 346 346 347 348 342 339 337 334 332 328
150 151 150 162 183 203 233 284 302 313 326 328 355 42 51 25 19 21 15 6 0 347 340 348 353 358 360 355 347 351 349 350 353 338 338 345 339 337 335 332 332 330 326
153 152 155 167 191 222 284 294 315 331 357 69 90 78 47 37 21 18 19 9 356 344 347 345 346 348 357 355 357 359 354 351 351 351 339 356 357 352 344 337 329 328 323
148 158 165 177 214 274 298 313 50 58 88 93 85 61 24 23 14 17 13 3 353 2 353 347 340 343 344 348 345 348 352 352 354 343 350 346 348 347 345 343 337 335 330
157 164 175 230 288 265 95 156 106 93 104 101 94 48 6 11 9 3 1 360 357 354 354 342 339 338 341 335 342 341 342 344 347 346 338 342 334 343 344 345 328 338 335
161 164 162 153 146 132 137 137 125 118 129 133 93 2 346 352 351 353 349 354 356 357 346 340 343 333 338 338 337 336 336 340 342 345 338 337 343 340 342 340 331 335 343
135 115 107 110 116 116 118 119 121 126 142 119 25 346 339 347 343 335 343 344 351 346 344 340 340 334 335 337 337 336 332 335 339 343 333 335 339 339 340 338 325 332 339
110 105 112 110 116 110 79 75 73 87 120 82 348 338 343 348 341 338 339 339 342 340 341 338 337 331 333 335 330 331 333 332 335 343 332 329 340 338 336 335 325 342 339
104 102 103 101 90 75 60 47 34 44 30 358 336 333 336 337 340 338 338 338 338 336 336 337 334 334 332 331 329 328 331 329 328 333 327 326 340 334 334 336 333 335 340
99 97 92 82 69 58 46 34 28 29 23 359 346 330 332 335 333 332 336 336 337 338 338 338 337 334 330 327 329 330 332 323 326 333 323 322 338 331 333 339 327 335 345
88 81 74 68 58 45 32 21 17 15 9 345 331 328 331 329 328 331 332 334 334 336 336 339 339 336 332 331 334 336 334 341 337 339 320 323 333 332 339 341 322 351 343
73 62 55 51 44 35 26 18 13 14 3 352 338 332 326 327 330 333 336 337 336 337 340 340 342 344 342 342 347 348 340 342 347 344 340 336 339 345 333 342 338 352 352
Wind_Speed_850mb
34 34 31 26 22 20 18 20 17 12 9 9 12 13 17 24 31 34 37 41 41 40 41 42 42 44 46 48 50 50 49 50 49 48 47 44 40 38 40 41 44 47 52
31 31 31 28 27 20 17 17 12 10 12 14 13 20 27 31 35 34 35 36 37 38 38 38 38 38 37 39 40 39 39 41 43 44 44 45 45 43 44 46 47 47 46
29 30 30 30 25 20 19 12 14 14 16 18 19 28 31 33 32 32 33 33 35 38 38 38 38 38 38 39 39 41 44 46 47 47 47 47 49 50 50 52 54 53 48
29 28 32 32 25 23 18 16 13 8 15 27 33 34 35 28 32 31 32 34 35 37 37 38 40 40 41 43 45 46 48 50 52 53 53 53 55 57 56 52 49 49 49
31 33 27 30 29 23 17 10 6 8 11 11 49 37 33 31 29 28 30 32 39 39 41 44 46 50 50 48 47 47 46 47 47 47 49 53 55 58 55 51 48 47 49
32 33 31 29 26 18 14 12 11 11 3 32 46 37 30 28 25 27 29 43 39 41 51 54 57 57 51 48 47 48 48 49 50 50 50 49 49 50 48 46 46 45 44
32 37 34 34 32 26 19 13 9 9 27 45 34 26 27 24 23 25 35 43 48 53 57 58 54 50 43 44 41 43 45 48 49 48 51 53 52 50 47 42 41 41 42
35 35 32 33 34 27 26 21 16 18 49 36 24 28 10 22 21 23 42 45 48 54 50 46 42 39 37 39 43 40 39 41 43 44 46 48 49 50 53 54 51 47 43
25 23 31 26 36 22 14 14 18 41 28 25 25 14 12 9 37 32 38 40 49 49 40 32 34 30 36 40 41 40 39 38 39 42 43 46 48 49 50 49 48 47 47
22 16 9 30 6 33 20 36 37 22 21 23 19 18 18 22 14 21 38 40 44 33 31 29 29 31 35 37 36 38 43 45 47 47 49 47 47 46 47 46 45 45 40
14 25 24 39 38 25 34 31 25 18 19 16 15 17 19 19 17 14 28 42 30 24 25 24 21 25 30 32 34 43 46 45 45 48 51 49 47 47 49 50 48 45 41
36 35 21 13 20 29 21 15 14 16 17 15 15 18 17 11 11 12 22 32 31 23 18 17 20 24 29 31 36 47 45 38 36 43 47 46 46 46 47 47 46 42 41
38 40 15 23 31 23 14 13 13 13 14 17 20 19 18 16 18 16 13 22 26 29 17 14 30 28 32 31 38 44 43 34 41 45 48 48 48 44 45 47 45 40 43
49 36 25 22 13 11 10 9 10 13 17 18 20 19 18 17 16 16 16 24 31 15 19 23 36 31 34 34 39 43 42 42 38 40 41 45 44 41 46 49 48 44 39
38 34 18 17 14 11 7 8 14 17 18 17 16 14 12 10 13 17 18 20 16 18 23 35 35 41 36 34 39 43 42 43 37 35 37 37 37 39 43 48 49 45 40
25 21 25 21 15 11 10 11 15 12 12 10 7 7 8 10 14 14 11 11 13 16 17 31 36 44 42 40 39 46 45 44 41 33 32 38 44 45 47 49 48 45 43
24 26 24 19 13 6 8 9 7 5 3 4 9 10 10 15 14 13 14 15 16 19 26 33 34 38 46 49 50 47 45 42 46 42 30 35 40 43 46 48 46 44 46
30 22 17 12 7 6 3 1 2 6 7 13 11 8 10 12 15 21 21 22 22 30 30 38 40 40 46 48 52 47 48 48 52 44 38 38 41 43 47 47 43 48 53
24 17 10 3 4 2 2 2 6 9 12 12 6 4 9 13 16 20 25 27 27 30 31 33 41 40 45 42 54 46 51 53 52 50 38 49 42 46 49 49 43 52 53
18 11 6 5 6 8 8 8 8 8 11 8 4 6 11 21 22 25 27 32 36 40 35 35 39 42 45 49 45 50 59 55 62 44 38 57 50 38 49 57 42 58 63
14 13 12 12 12 11 9 7 6 6 9 6 5 10 16 24 29 30 31 35 41 43 39 41 40 45 48 60 53 59 58 65 64 35 46 48 47 41 41 44 39 57 66
16 15 15 15 12 11 11 7 5 5 8 6 6 15 21 26 23 26 31 38 43 48 49 47 41 49 55 56 54 60 58 63 64 41 54 50 47 40 42 45 41 58 63
16 15 15 14 12 13 13 13 8 7 9 9 12 17 21 27 27 27 32 38 44 45 49 55 54 50 57 60 61 55 53 52 56 61 50 60 42 46 52 47 46 57 68
18 17 17 16 14 13 14 13 16 17 14 16 18 23 27 28 31 35 43 47 49 51 52 52 54 54 54 54 51 47 45 47 46 39 48 56 53 52 57 44 40 60 67
18 18 17 16 15 14 15 17 17 16 12 15 19 21 27 31 35 42 49 53 55 55 56 55 48 43 42 38 40 39 38 48 57 51 29 52 56 64 60 44 34 60 64
20 22 18 16 16 15 16 17 17 18 17 15 17 22 27 33 41 46 50 54 56 56 55 53 44 38 35 33 36 36 33 43 46 43 43 58 60 60 55 43 71 63 71
Wind_Direction_850mb
212 211 207 201 202 195 193 185 207 223 226 241 275 294 311 312 311 308 306 305 306 307 306 304 302 297 295 293 294 294 294 293 292 290 290 292 292 294 295 297 296 290 285
214 214 211 205 194 194 194 207 220 228 248 262 285 313 316 309 304 304 305 308 312 314 314 311 309 304 302 301 302 302 305 305 302 295 289 287 291 293 296 299 298 294 290
215 213 210 201 196 201 216 230 239 250 273 292 318 317 310 306 304 309 311 312 312 312 311 309 305 304 303 301 301 300 300 301 300 298 295 294 295 296 299 300 299 296 291
214 209 205 195 198 213 232 239 248 266 318 320 325 306 307 307 310 310 307 308 314 317 315 313 311 309 308 306 306 305 302 300 296 295 294 294 294 295 297 297 292 289 289
210 201 193 196 209 223 228 234 244 299 357 353 300 306 305 302 300 298 306 315 320 318 318 317 314 314 313 310 307 304 304 302 301 298 297 296 295 296 297 296 292 288 289
212 206 204 207 212 210 204 222 218 257 153 274 288 296 294 294 287 301 305 321 315 318 318 317 320 320 317 314 309 307 306 303 303 304 303 302 304 303 301 299 294 289 290
212 211 215 223 217 205 207 185 191 237 267 284 290 287 300 283 286 296 308 313 318 320 321 322 323 322 320 317 316 314 313 310 309 308 305 303 299 299 300 299 298 295 291
214 217 227 233 185 183 162 155 154 252 268 276 284 306 282 296 285 293 308 310 317 322 324 327 328 330 333 334 333 332 326 319 318 318 314 311 306 301 294 291 292 291 293
229 239 242 236 181 141 40 195 213 267 274 277 301 307 309 293 308 308 310 319 324 328 335 339 341 343 338 339 342 344 344 342 336 331 328 320 315 310 305 303 299 295 290
216 193 190 140 273 235 218 195 267 277 270 285 297 308 308 301 306 314 319 335 333 346 347 345 341 341 334 340 346 344 339 336 332 330 330 325 318 315 312 310 307 300 296
102 70 105 111 125 187 206 252 269 264 275 290 303 317 317 318 322 325 322 335 347 346 349 351 344 342 341 352 350 348 341 334 333 334 333 329 324 319 314 312 311 308 303
112 112 117 152 207 234 255 260 262 275 286 303 323 329 331 341 343 347 332 328 325 339 341 5 354 356 348 350 351 351 346 343 343 342 345 343 337 337 336 324 309 305 303
137 123 153 188 233 245 239 238 269 287 306 326 330 331 343 349 350 355 334 324 318 334 335 324 345 345 346 349 351 354 1 347 338 337 339 341 340 342 345 350 344 322 304
138 135 186 240 198 202 218 251 275 299 314 324 329 338 344 352 352 358 339 344 350 335 340 344 344 339 342 343 347 349 354 357 346 346 344 349 352 346 344 342 339 335 333
139 154 187 185 175 195 227 273 287 302 312 324 329 346 360 359 1 359 11 29 13 342 353 351 353 352 353 343 344 345 350 349 350 346 346 347 348 342 339 337 334 332 328
150 151 150 162 183 203 233 284 302 313 326 328 355 42 51 25 19 21 15 6 0 347 340 348 353 358 360 355 347 351 349 350 353 338 338 345 339 337 335 332 332 330 326
153 152 155 167 191 222 284 294 315 331 357 69 90 78 47 37 21 18 19 9 356 344 347 345 346 348 357 355 357 359 354 351 351 351 339 356 357 352 344 337 329 328 323
148 158 165 177 214 274 298 313 50 58 88 93 85 61 24 23 14 17 13 3 353 2 353 347 340 343 344 348 345 348 352 352 354 343 350 346 348 347 345 343 337 335 330
157 164 175 230 288 265 95 156 106 93 104 101 94 48 6 11 9 3 1 360 357 354 354 342 339 338 341 335 342 341 342 344 347 346 338 342 334 343 344 345 328 338 335
161 164 162 153 146 132 137 137 125 118 129 133 93 2 346 352 351 353 349 354 356 357 346 340 343 333 338 338 337 336 336 340 342 345 338 337 343 340 342 340 331 335 343
135 115 107 110 116 116 118 119 121 126 142 119 25 346 339 347 343 335 343 344 351 346 344 340 340 334 335 337 337 336 332 335 339 343 333 335 339 339 340 338 325 332 339
110 105 112 110 116 110 79 75 73 87 120 82 348 338 343 348 341 338 339 339 342 340 341 338 337 331 333 335 330 331 333 332 335 343 332 329 340 338 336 335 325 342 339
104 102 103 101 90 75 60 47 34 44 30 358 336 333 336 337 340 338 338 338 338 336 336 337 334 334 332 331 329 328 331 329 328 333 327 326 340 334 334 336 333 335 340
99 97 92 82 69 58 46 34 28 29 23 359 346 330 332 335 333 332 336 336 337 338 338 338 337 334 330 327 329 330 332 323 326 333 323 322 338 331 333 339 327 335 345
88 81 74 68 58 45 32 21 17 15 9 345 331 328 331 329 328 331 332 334 334 336 336 339 339 336 332 331 334 336 334 341 337 339 320 323 333 332 339 341 322 351 343
73 62 55 51 44 35 26 18 13 14 3 352 338 332 326 327 330 333 336 337 336 337 340 340 342 344 342 342 347 348 340 342 347 344 340 336 339 345 333 342 338 352 352